Regional Weather Roundup
Issued by NWS

Home | Current Version | Previous Version | Graphics & Text | Print | Product List | Glossary On
Versions: 1 2 3 4 5 6 7 8 9 10 11 12 13 14 15 16 17 18 19 20 21 22 23 24 25 26 27 28 29 30 31 32 33 34 35 36 37 38 39 40 41 42 43 44 45 46 47 48 49 50
159
ASUS43 KDMX 281506
RWRIA

WEATHER ROUNDUP FOR IOWA
NATIONAL WEATHER SERVICE DES MOINES IA
900 AM CST TUE FEB 28 2017

NOTE: "FAIR" INDICATES FEW OR NO CLOUDS BELOW 12,000 FEET WITH NO
SIGNIFICANT WEATHER AND/OR OBSTRUCTIONS TO VISIBILITY.

* - THESE STATIONS ARE NOT NWS STATIONS...THUS NOT UNDER NWS
QUALITY CONTROL.  THEY ALSO DO NOT REPORT WEATHER SUCH
AS PRECIPITATION OR FOG.

IAZ001>003-012>014-020>022-031>034-043>046-281600-
   NORTHWEST IOWA

CITY           SKY/WX    TMP DP  RH WIND       PRES   REMARKS
CARROLL *      CLOUDY    37  37 100 NW7       29.61S WCI  32
CHEROKEE *     CLOUDY    36  33  89 N10       29.64F WCI  28
DENISON *      CLOUDY    37  34  87 NE6       29.60R WCI  33
LE MARS *      CLOUDY    36  32  87 NE12      29.66F WCI  27
SHELDON *      CLOUDY    36  36 100 E12       29.63F WCI  27
SIOUX CITY     CLOUDY    39  32  76 N12       29.64S WCI  32
SPENCER        CLOUDY    35  32  88 NE9       29.67R WCI  28
STORM LAKE *   CLOUDY    34  32  93 N16       29.62S WCI  23
$$

IAZ055>058-069>071-079>083-090>094-281600-
   SOUTHWEST IOWA

CITY           SKY/WX    TMP DP  RH WIND       PRES   REMARKS
ATLANTIC *     CLOUDY    48  48 100 SW10      29.61R
AUDUBON *      CLOUDY    45  43  93 CALM      29.61R FOG
CLARINDA *     CLOUDY    57  52  82 SW9       29.65R
COUNCIL BLFS * CLOUDY    45  43  93 SW9       29.62R
CRESTON *      CLOUDY    57  54  88 SW13G18   29.63R
HARLAN  *      FOG       39  39 100 S3        29.64S VSB<1/4
LAMONI         CLOUDY    61  57  87 SW17      29.63R
RED OAK *      CLOUDY    50  41  71 SW8       29.62S
SHENANDOAH *   CLOUDY    52  45  76 SW9       29.63S
$$

IAZ047>049-059>061-072>074-084-281600-
   CENTRAL IOWA

CITY           SKY/WX    TMP DP  RH WIND       PRES   REMARKS
AMES           CLOUDY    54  53  97 S10       29.60R
ANKENY *       CLOUDY    55  52  88 S7        29.61F
BOONE *        CLOUDY    48  48 100 CALM      29.59F
CHARITON *     MOSUNNY   59  55  88 S15G22    29.62R
DES MOINES     CLOUDY    56  51  84 SW5       29.61R
GRINNELL*      CLOUDY    55  51  85 S13       29.63S
KNOXVILLE *    PTSUNNY   61  55  82 S10G25    29.60S
MARSHALLTOWN   MOSUNNY   52  50  93 S9        29.60S
NEWTON *       CLOUDY    55  52  88 S9        29.61S
PELLA *        CLOUDY    59  54  85 SW8       29.63S
PERRY *          N/A     49  46  90 S7        29.60S
$$

IAZ004>006-015-016-023>025-035-036-281600-
   NORTH CENTRAL IOWA

CITY           SKY/WX    TMP DP  RH WIND       PRES   REMARKS
ALGONA *       CLOUDY    36  34  93 N10G16    29.65S WCI  28
CLARION *      CLOUDY    37  37 100 E9        29.62S FOG     WCI  31
ESTHERVILLE    CLOUDY    32  32 100 N12       29.66R WCI  23
FORT DODGE *   CLOUDY    37  34  87 NE7       29.63S WCI  32
MASON CITY     CLOUDY    35  33  92 N7        29.65F FOG     WCI  29
FOREST CITY *  CLOUDY    37  36  93 NE6       29.64S WCI  33
WEBSTER CITY * CLOUDY    37  36  93 N12       29.60R FOG     WCI  30
IOWA FALLS *   CLOUDY    42  40  93 N5        29.62S
$$

IAZ007>011-017>019-026>030-037>042-050>054-066-281600-
   NORTHEAST IOWA

CITY           SKY/WX    TMP DP  RH WIND       PRES   REMARKS
CEDAR RAPIDS   CLOUDY    53  52  96 S13G23    29.63F
CHARLES CITY * LGT RAIN  39  39 100 E3        29.64S VSB 3/4
CLINTON *      CLOUDY    53  51  93 S17       29.70F
DECORAH *      CLOUDY    41  39  93 E7        29.64F FOG
DUBUQUE        CLOUDY    48  48 100 S14       29.66F FOG
MONTICELLO *   CLOUDY    54  50  87 S13G22    29.65F
OELWEIN *      PTSUNNY   45  45 100 E7        29.64S FOG
WATERLOO       PTSUNNY   47  43  86 SE5       29.62F
$$

IAZ064-065-067-068-078-281600-
   EAST CENTRAL IOWA

CITY           SKY/WX    TMP DP  RH WIND       PRES   REMARKS
DAVENPORT      PTSUNNY   54  51  90 S18       29.70F
IOWA CITY      CLOUDY    54  50  86 S12       29.68F
MUSCATINE *    CLOUDY    55  52  88 SE8       29.69F
QUAD CITIES    PTSUNNY   56  51  84 S15       29.70F
$$

IAZ062-063-075>077-085>089-095>099-281600-
   SOUTHEAST IOWA

CITY           SKY/WX    TMP DP  RH WIND       PRES   REMARKS
BURLINGTON     CLOUDY    58  54  86 S14       29.69F
FAIRFIELD *    CLOUDY    59  54  82 S15G21    29.65S
FORT MADISON * CLOUDY    61  55  82 S13       29.70F
KEOKUK *       CLOUDY    59  55  88 S13G21    29.69F
CENTERVILLE *  PTSUNNY   63  57  82 S18G24    29.66S
OTTUMWA        CLOUDY    59  56  89 S9        29.64S
WASHINGTON *   MOSUNNY   57  55  94 S13G20    29.67F
$$

ABBREVIATIONS USED IN REMARKS
   TC - TEMPERATURES IN CELSIUS
  WCI - WIND CHILL INDEX
   HX - HEAT INDEX
  VSB - VISIBILITY
$$





USA.gov is the U.S. government's official web portal to all federal, state and local government web resources and services.